Time,TemperatureF,DewpointF,PressureIn,WindDirection,WindDirectionDegrees,WindSpeedMPH,WindSpeedGustMPH,Humidity,HourlyPrecipIn,Conditions,Clouds,dailyrainin,SolarRadiationWatts/m^2,SoftwareType,DateUTC
2013-04-19 00:03:00,44.9,43.5,29.51,WNW,294,9.0,12.0,95,0.04,,,0.00,0,HR-IXP-WINDi_r2_v1.2,2013-04-19 05:03:00,
2013-04-19 00:08:00,44.3,42.6,29.53,WSW,243,13.0,21.0,94,0.05,,,0.01,0,HR-IXP-WINDi_r2_v1.2,2013-04-19 05:08:00,
2013-04-19 00:13:00,43.7,41.8,29.50,West,269,11.0,21.0,93,0.12,,,0.02,0,HR-IXP-WINDi_r2_v1.2,2013-04-19 05:13:00,
2013-04-19 00:18:00,43.4,41.5,29.52,West,263,11.0,20.0,93,0.06,,,0.02,0,HR-IXP-WINDi_r2_v1.2,2013-04-19 05:18:00,
2013-04-19 00:23:00,43.3,41.4,29.51,West,279,8.0,19.0,93,0.04,,,0.02,0,HR-IXP-WINDi_r2_v1.2,2013-04-19 05:23:00,
2013-04-19 00:29:00,43.2,41.3,29.52,WSW,248,10.0,19.0,93,0.00,,,0.02,0,HR-IXP-WINDi_r2_v1.2,2013-04-19 05:29:00,
2013-04-19 00:34:00,43.0,41.1,29.52,WNW,287,2.0,13.0,93,0.00,,,0.02,0,HR-IXP-WINDi_r2_v1.2,2013-04-19 05:34:00,
2013-04-19 00:39:00,42.9,41.0,29.52,West,266,8.0,14.0,93,0.00,,,0.02,0,HR-IXP-WINDi_r2_v1.2,2013-04-19 05:39:00,
2013-04-19 00:44:00,42.8,40.6,29.52,WSW,253,4.0,17.0,92,0.00,,,0.02,0,HR-IXP-WINDi_r2_v1.2,2013-04-19 05:44:00,
2013-04-19 00:49:00,42.7,40.5,29.52,WSW,250,2.0,17.0,92,0.00,,,0.02,0,HR-IXP-WINDi_r2_v1.2,2013-04-19 05:49:00,
2013-04-19 00:54:00,42.6,40.1,29.52,SW,215,4.0,13.0,91,0.00,,,0.02,0,HR-IXP-WINDi_r2_v1.2,2013-04-19 05:54:00,
2013-04-19 00:59:00,42.6,40.1,29.52,West,281,13.0,13.0,91,0.00,,,0.02,0,HR-IXP-WINDi_r2_v1.2,2013-04-19 05:59:00,
2013-04-19 01:05:00,42.6,39.8,29.52,WSW,248,10.0,13.0,90,0.00,,,0.02,0,HR-IXP-WINDi_r2_v1.2,2013-04-19 06:05:00,
2013-04-19 01:10:00,42.6,39.5,29.52,NNW,346,5.0,13.0,89,0.00,,,0.02,0,HR-IXP-WINDi_r2_v1.2,2013-04-19 06:10:00,
2013-04-19 01:15:00,42.6,39.5,29.52,West,261,5.0,13.0,89,0.00,,,0.02,0,HR-IXP-WINDi_r2_v1.2,2013-04-19 06:15:00,
2013-04-19 01:20:00,42.6,39.5,29.52,West,263,5.0,12.0,89,0.00,,,0.02,0,HR-IXP-WINDi_r2_v1.2,2013-04-19 06:20:00,
2013-04-19 01:25:00,42.5,39.7,29.52,WSW,248,8.0,12.0,90,0.00,,,0.02,0,HR-IXP-WINDi_r2_v1.2,2013-04-19 06:25:00,
2013-04-19 01:31:00,42.5,39.1,29.51,West,259,3.0,11.0,88,0.00,,,0.02,0,HR-IXP-WINDi_r2_v1.2,2013-04-19 06:31:00,
2013-04-19 01:36:00,42.3,39.0,29.50,SW,221,7.0,13.0,88,0.00,,,0.02,0,HR-IXP-WINDi_r2_v1.2,2013-04-19 06:36:00,
2013-04-19 01:41:00,42.2,39.1,29.50,West,272,6.0,13.0,89,0.00,,,0.02,0,HR-IXP-WINDi_r2_v1.2,2013-04-19 06:41:00,
2013-04-19 01:46:00,42.0,38.9,29.50,SW,234,5.0,13.0,89,0.00,,,0.02,0,HR-IXP-WINDi_r2_v1.2,2013-04-19 06:46:00,
2013-04-19 01:51:00,41.9,39.1,29.50,SW,235,3.0,13.0,90,0.00,,,0.02,0,HR-IXP-WINDi_r2_v1.2,2013-04-19 06:51:00,
2013-04-19 01:56:00,41.8,39.0,29.49,WNW,289,5.0,11.0,90,0.00,,,0.02,0,HR-IXP-WINDi_r2_v1.2,2013-04-19 06:56:00,
2013-04-19 02:02:00,41.6,38.6,29.50,WSW,248,7.0,14.0,89,0.00,,,0.02,0,HR-IXP-WINDi_r2_v1.2,2013-04-19 07:02:00,
2013-04-19 02:07:00,41.4,38.1,29.52,WSW,252,12.0,18.0,88,0.00,,,0.02,0,HR-IXP-WINDi_r2_v1.2,2013-04-19 07:07:00,
2013-04-19 02:12:00,41.1,37.2,29.51,WSW,238,9.0,18.0,86,0.00,,,0.02,0,HR-IXP-WINDi_r2_v1.2,2013-04-19 07:12:00,
2013-04-19 02:17:00,40.8,36.6,29.51,SW,226,5.0,18.0,85,0.00,,,0.02,0,HR-IXP-WINDi_r2_v1.2,2013-04-19 07:17:00,
2013-04-19 02:22:00,40.6,36.4,29.51,West,261,7.0,16.0,85,0.00,,,0.02,0,HR-IXP-WINDi_r2_v1.2,2013-04-19 07:22:00,
2013-04-19 02:28:00,40.2,35.7,29.51,West,269,4.0,14.0,84,0.00,,,0.02,0,HR-IXP-WINDi_r2_v1.2,2013-04-19 07:28:00,
2013-04-19 02:33:00,39.9,35.7,29.52,West,269,11.0,15.0,85,0.00,,,0.02,0,HR-IXP-WINDi_r2_v1.2,2013-04-19 07:33:00,
2013-04-19 02:38:00,39.6,35.4,29.52,West,271,9.0,15.0,85,0.00,,,0.02,0,HR-IXP-WINDi_r2_v1.2,2013-04-19 07:38:00,
2013-04-19 02:43:00,39.4,35.2,29.51,West,277,8.0,15.0,85,0.00,,,0.02,0,HR-IXP-WINDi_r2_v1.2,2013-04-19 07:43:00,
2013-04-19 02:48:00,39.3,35.4,29.51,WSW,250,8.0,15.0,86,0.00,,,0.02,0,HR-IXP-WINDi_r2_v1.2,2013-04-19 07:48:00,
2013-04-19 02:53:00,39.1,34.9,29.50,WSW,250,7.0,17.0,85,0.00,,,0.02,0,HR-IXP-WINDi_r2_v1.2,2013-04-19 07:53:00,
2013-04-19 02:58:00,39.0,35.1,29.50,WSW,242,3.0,17.0,86,0.00,,,0.02,0,HR-IXP-WINDi_r2_v1.2,2013-04-19 07:58:00,
2013-04-19 03:04:00,38.9,35.0,29.50,WNW,295,2.0,15.0,86,0.00,,,0.02,0,HR-IXP-WINDi_r2_v1.2,2013-04-19 08:04:00,
2013-04-19 03:09:00,38.8,34.6,29.50,West,260,8.0,15.0,85,0.00,,,0.02,0,HR-IXP-WINDi_r2_v1.2,2013-04-19 08:09:00,
2013-04-19 03:14:00,38.6,34.4,29.50,West,269,7.0,17.0,85,0.00,,,0.02,0,HR-IXP-WINDi_r2_v1.2,2013-04-19 08:14:00,
2013-04-19 03:19:00,38.5,34.3,29.50,West,267,5.0,17.0,85,0.00,,,0.02,0,HR-IXP-WINDi_r2_v1.2,2013-04-19 08:19:00,
2013-04-19 03:25:00,38.4,34.5,29.50,West,273,3.0,12.0,86,0.00,,,0.02,0,HR-IXP-WINDi_r2_v1.2,2013-04-19 08:25:00,
2013-04-19 03:30:00,38.3,34.4,29.50,WNW,286,4.0,14.0,86,0.00,,,0.02,0,HR-IXP-WINDi_r2_v1.2,2013-04-19 08:30:00,
2013-04-19 03:35:00,38.2,34.3,29.50,WNW,288,6.0,14.0,86,0.00,,,0.02,0,HR-IXP-WINDi_r2_v1.2,2013-04-19 08:35:00,
2013-04-19 03:40:00,38.2,34.6,29.50,WSW,238,11.0,15.0,87,0.00,,,0.02,0,HR-IXP-WINDi_r2_v1.2,2013-04-19 08:40:00,
2013-04-19 03:46:00,38.1,34.2,29.50,West,272,7.0,17.0,86,0.00,,,0.02,0,HR-IXP-WINDi_r2_v1.2,2013-04-19 08:46:00,
2013-04-19 03:51:00,38.0,34.1,29.50,West,262,5.0,17.0,86,0.00,,,0.02,0,HR-IXP-WINDi_r2_v1.2,2013-04-19 08:51:00,
2013-04-19 03:56:00,38.0,34.1,29.51,WSW,243,4.0,15.0,86,0.00,,,0.02,0,HR-IXP-WINDi_r2_v1.2,2013-04-19 08:56:00,
2013-04-19 04:01:00,37.9,33.8,29.50,West,275,6.0,15.0,85,0.00,,,0.02,0,HR-IXP-WINDi_r2_v1.2,2013-04-19 09:01:00,
2013-04-19 04:06:00,37.9,33.8,29.51,West,271,9.0,16.0,85,0.00,,,0.02,0,HR-IXP-WINDi_r2_v1.2,2013-04-19 09:06:00,
2013-04-19 04:11:00,37.8,33.7,29.51,WSW,250,5.0,16.0,85,0.00,,,0.02,0,HR-IXP-WINDi_r2_v1.2,2013-04-19 09:11:00,
2013-04-19 04:17:00,37.8,33.7,29.52,WSW,251,4.0,13.0,85,0.00,,,0.02,0,HR-IXP-WINDi_r2_v1.2,2013-04-19 09:17:00,
2013-04-19 04:22:00,37.8,33.4,29.52,West,275,10.0,14.0,84,0.00,,,0.02,0,HR-IXP-WINDi_r2_v1.2,2013-04-19 09:22:00,
2013-04-19 04:27:00,37.8,32.8,29.52,WSW,254,11.0,20.0,82,0.00,,,0.02,0,HR-IXP-WINDi_r2_v1.2,2013-04-19 09:27:00,
2013-04-19 04:32:00,37.7,32.4,29.53,West,268,10.0,20.0,81,0.00,,,0.02,0,HR-IXP-WINDi_r2_v1.2,2013-04-19 09:32:00,
2013-04-19 04:37:00,37.7,31.7,29.52,WSW,253,7.0,20.0,79,0.00,,,0.02,0,HR-IXP-WINDi_r2_v1.2,2013-04-19 09:37:00,
2013-04-19 04:43:00,37.6,32.0,29.52,WSW,247,8.0,20.0,80,0.00,,,0.02,0,HR-IXP-WINDi_r2_v1.2,2013-04-19 09:43:00,
2013-04-19 04:48:00,37.5,31.9,29.52,West,262,10.0,16.0,80,0.00,,,0.02,0,HR-IXP-WINDi_r2_v1.2,2013-04-19 09:48:00,
2013-04-19 04:53:00,37.5,31.9,29.52,West,279,6.0,15.0,80,0.00,,,0.02,0,HR-IXP-WINDi_r2_v1.2,2013-04-19 09:53:00,
2013-04-19 04:58:00,37.5,31.9,29.51,West,278,4.0,15.0,80,0.00,,,0.02,0,HR-IXP-WINDi_r2_v1.2,2013-04-19 09:58:00,
2013-04-19 05:04:00,37.5,32.2,29.51,SW,232,6.0,14.0,81,0.00,,,0.02,0,HR-IXP-WINDi_r2_v1.2,2013-04-19 10:04:00,
2013-04-19 05:09:00,37.4,31.8,29.51,WSW,248,8.0,18.0,80,0.00,,,0.02,0,HR-IXP-WINDi_r2_v1.2,2013-04-19 10:09:00,
2013-04-19 05:14:00,37.4,31.8,29.51,West,259,16.0,18.0,80,0.00,,,0.02,0,HR-IXP-WINDi_r2_v1.2,2013-04-19 10:14:00,
2013-04-19 05:19:00,37.4,31.5,29.52,WSW,237,7.0,19.0,79,0.00,,,0.02,0,HR-IXP-WINDi_r2_v1.2,2013-04-19 10:19:00,
2013-04-19 05:25:00,37.4,31.8,29.52,WSW,247,5.0,19.0,80,0.00,,,0.02,0,HR-IXP-WINDi_r2_v1.2,2013-04-19 10:25:00,
2013-04-19 05:30:00,37.4,31.5,29.51,WSW,247,10.0,17.0,79,0.00,,,0.02,0,HR-IXP-WINDi_r2_v1.2,2013-04-19 10:30:00,
2013-04-19 05:35:00,37.4,31.8,29.52,West,266,14.0,19.0,80,0.00,,,0.02,0,HR-IXP-WINDi_r2_v1.2,2013-04-19 10:35:00,
2013-04-19 05:40:00,37.3,31.4,29.52,West,271,5.0,19.0,79,0.00,,,0.02,0,HR-IXP-WINDi_r2_v1.2,2013-04-19 10:40:00,
2013-04-19 05:46:00,37.3,31.0,29.52,WSW,250,11.0,19.0,78,0.00,,,0.02,0,HR-IXP-WINDi_r2_v1.2,2013-04-19 10:46:00,
2013-04-19 05:51:00,37.3,31.0,29.52,WNW,284,8.0,19.0,78,0.00,,,0.02,0,HR-IXP-WINDi_r2_v1.2,2013-04-19 10:51:00,
2013-04-19 05:56:00,37.3,31.0,29.53,WSW,250,10.0,16.0,78,0.00,,,0.02,0,HR-IXP-WINDi_r2_v1.2,2013-04-19 10:56:00,
2013-04-19 06:01:00,37.3,31.0,29.52,SSW,202,8.0,16.0,78,0.00,,,0.02,0,HR-IXP-WINDi_r2_v1.2,2013-04-19 11:01:00,
2013-04-19 06:06:00,37.3,30.7,29.53,WSW,247,6.0,23.0,77,0.00,,,0.02,0,HR-IXP-WINDi_r2_v1.2,2013-04-19 11:06:00,
2013-04-19 06:12:00,37.3,31.0,29.53,West,263,7.0,23.0,78,0.00,,,0.02,0,HR-IXP-WINDi_r2_v1.2,2013-04-19 11:12:00,
2013-04-19 06:17:00,37.2,30.9,29.53,West,262,6.0,18.0,78,0.00,,,0.02,0,HR-IXP-WINDi_r2_v1.2,2013-04-19 11:17:00,
2013-04-19 06:22:00,37.2,30.6,29.53,West,263,10.0,17.0,77,0.00,,,0.02,5,HR-IXP-WINDi_r2_v1.2,2013-04-19 11:22:00,
2013-04-19 06:27:00,37.1,30.2,29.53,West,279,14.0,17.0,76,0.00,,,0.02,7,HR-IXP-WINDi_r2_v1.2,2013-04-19 11:27:00,
2013-04-19 06:33:00,37.1,30.2,29.53,West,259,13.0,17.0,76,0.00,,,0.02,7,HR-IXP-WINDi_r2_v1.2,2013-04-19 11:33:00,
2013-04-19 06:38:00,37.1,30.5,29.53,WSW,246,6.0,17.0,77,0.00,,,0.02,9,HR-IXP-WINDi_r2_v1.2,2013-04-19 11:38:00,
2013-04-19 06:43:00,37.1,30.2,29.54,WSW,246,11.0,18.0,76,0.00,,,0.02,9,HR-IXP-WINDi_r2_v1.2,2013-04-19 11:43:00,
2013-04-19 06:48:00,37.1,29.9,29.53,WSW,237,11.0,20.0,75,0.00,,,0.02,11,HR-IXP-WINDi_r2_v1.2,2013-04-19 11:48:00,
2013-04-19 06:54:00,37.1,29.9,29.54,West,271,3.0,20.0,75,0.00,,,0.02,14,HR-IXP-WINDi_r2_v1.2,2013-04-19 11:54:00,
2013-04-19 06:59:00,37.2,29.3,29.54,West,269,7.0,22.0,73,0.00,,,0.02,16,HR-IXP-WINDi_r2_v1.2,2013-04-19 11:59:00,
2013-04-19 07:04:00,37.3,30.1,29.54,WNW,301,5.0,22.0,75,0.00,,,0.02,16,HR-IXP-WINDi_r2_v1.2,2013-04-19 12:04:00,
2013-04-19 07:09:00,37.3,30.1,29.55,SW,233,10.0,15.0,75,0.00,,,0.02,14,HR-IXP-WINDi_r2_v1.2,2013-04-19 12:09:00,
2013-04-19 07:14:00,37.3,30.7,29.54,SW,236,5.0,11.0,77,0.00,,,0.02,16,HR-IXP-WINDi_r2_v1.2,2013-04-19 12:14:00,
2013-04-19 07:19:00,37.2,30.6,29.55,WSW,242,4.0,17.0,77,0.00,,,0.02,16,HR-IXP-WINDi_r2_v1.2,2013-04-19 12:19:00,
2013-04-19 07:25:00,37.3,31.0,29.55,SW,235,8.0,17.0,78,0.00,,,0.02,16,HR-IXP-WINDi_r2_v1.2,2013-04-19 12:25:00,
2013-04-19 07:30:00,37.2,30.9,29.55,WSW,244,7.0,16.0,78,0.00,,,0.02,21,HR-IXP-WINDi_r2_v1.2,2013-04-19 12:30:00,
2013-04-19 07:35:00,37.2,30.9,29.55,SW,226,12.0,17.0,78,0.00,,,0.02,25,HR-IXP-WINDi_r2_v1.2,2013-04-19 12:35:00,
2013-04-19 07:40:00,37.3,31.4,29.55,SW,222,7.0,17.0,79,0.00,,,0.02,19,HR-IXP-WINDi_r2_v1.2,2013-04-19 12:40:00,
2013-04-19 07:46:00,37.3,31.4,29.55,SW,222,9.0,16.0,79,0.00,,,0.02,30,HR-IXP-WINDi_r2_v1.2,2013-04-19 12:46:00,
2013-04-19 07:51:00,37.3,31.7,29.55,SW,236,5.0,19.0,80,0.00,,,0.02,26,HR-IXP-WINDi_r2_v1.2,2013-04-19 12:51:00,
2013-04-19 07:56:00,37.3,31.4,29.55,WSW,246,5.0,19.0,79,0.00,,,0.02,32,HR-IXP-WINDi_r2_v1.2,2013-04-19 12:56:00,
2013-04-19 08:01:00,37.3,31.7,29.55,West,265,10.0,16.0,80,0.00,,,0.02,26,HR-IXP-WINDi_r2_v1.2,2013-04-19 13:01:00,
2013-04-19 08:06:00,37.3,32.0,29.55,SW,225,10.0,16.0,81,0.00,,,0.02,25,HR-IXP-WINDi_r2_v1.2,2013-04-19 13:06:00,
2013-04-19 08:11:00,37.2,31.9,29.55,SW,227,4.0,16.0,81,0.00,,,0.02,33,HR-IXP-WINDi_r2_v1.2,2013-04-19 13:11:00,
2013-04-19 08:17:00,37.1,31.8,29.55,WSW,253,7.0,16.0,81,0.00,,,0.02,35,HR-IXP-WINDi_r2_v1.2,2013-04-19 13:17:00,
2013-04-19 08:22:00,37.1,31.8,29.55,West,263,6.0,16.0,81,0.00,,,0.02,40,HR-IXP-WINDi_r2_v1.2,2013-04-19 13:22:00,
2013-04-19 08:27:00,37.1,31.5,29.55,WSW,255,7.0,19.0,80,0.00,,,0.02,60,HR-IXP-WINDi_r2_v1.2,2013-04-19 13:27:00,
2013-04-19 08:32:00,37.1,31.2,29.56,West,279,2.0,20.0,79,0.00,,,0.02,70,HR-IXP-WINDi_r2_v1.2,2013-04-19 13:32:00,
2013-04-19 08:37:00,37.1,31.2,29.56,SW,222,6.0,20.0,79,0.00,,,0.02,47,HR-IXP-WINDi_r2_v1.2,2013-04-19 13:37:00,
2013-04-19 08:42:00,37.1,31.8,29.56,WSW,246,7.0,13.0,81,0.00,,,0.02,40,HR-IXP-WINDi_r2_v1.2,2013-04-19 13:42:00,
2013-04-19 08:48:00,36.9,31.3,29.56,SSW,208,6.0,15.0,80,0.00,,,0.02,54,HR-IXP-WINDi_r2_v1.2,2013-04-19 13:48:00,
2013-04-19 08:53:00,36.8,30.9,29.56,SW,232,7.0,15.0,79,0.00,,,0.02,54,HR-IXP-WINDi_r2_v1.2,2013-04-19 13:53:00,
2013-04-19 08:58:00,36.8,30.9,29.56,WSW,240,6.0,15.0,79,0.00,,,0.02,65,HR-IXP-WINDi_r2_v1.2,2013-04-19 13:58:00,
2013-04-19 09:03:00,36.7,30.8,29.56,SSW,208,6.0,17.0,79,0.00,,,0.02,69,HR-IXP-WINDi_r2_v1.2,2013-04-19 14:03:00,
2013-04-19 09:09:00,36.7,31.1,29.57,NW,307,16.0,17.0,80,0.00,,,0.02,72,HR-IXP-WINDi_r2_v1.2,2013-04-19 14:09:00,
2013-04-19 09:14:00,36.7,31.1,29.57,WSW,241,7.0,16.0,80,0.00,,,0.02,67,HR-IXP-WINDi_r2_v1.2,2013-04-19 14:14:00,
2013-04-19 09:19:00,36.7,31.1,29.57,SSW,209,7.0,19.0,80,0.00,,,0.02,56,HR-IXP-WINDi_r2_v1.2,2013-04-19 14:19:00,
2013-04-19 09:24:00,36.7,31.1,29.57,WSW,256,2.0,19.0,80,0.00,,,0.02,70,HR-IXP-WINDi_r2_v1.2,2013-04-19 14:24:00,
2013-04-19 09:29:00,36.7,31.1,29.57,SW,230,11.0,17.0,80,0.00,,,0.02,77,HR-IXP-WINDi_r2_v1.2,2013-04-19 14:29:00,
2013-04-19 09:35:00,36.8,31.2,29.58,WSW,255,4.0,17.0,80,0.00,,,0.02,60,HR-IXP-WINDi_r2_v1.2,2013-04-19 14:35:00,
2013-04-19 09:40:00,36.8,31.2,29.58,SW,226,8.0,17.0,80,0.00,,,0.02,58,HR-IXP-WINDi_r2_v1.2,2013-04-19 14:40:00,
2013-04-19 09:45:00,36.7,31.4,29.58,SW,221,8.0,15.0,81,0.00,,,0.02,69,HR-IXP-WINDi_r2_v1.2,2013-04-19 14:45:00,
2013-04-19 09:50:00,36.8,31.5,29.58,SW,217,9.0,13.0,81,0.00,,,0.02,62,HR-IXP-WINDi_r2_v1.2,2013-04-19 14:50:00,
2013-04-19 09:55:00,36.7,31.7,29.59,SW,223,12.0,13.0,82,0.00,,,0.02,86,HR-IXP-WINDi_r2_v1.2,2013-04-19 14:55:00,
2013-04-19 10:00:00,36.8,31.8,29.58,SSW,201,6.0,15.0,82,0.00,,,0.02,149,HR-IXP-WINDi_r2_v1.2,2013-04-19 15:00:00,
2013-04-19 10:05:00,37.1,32.4,29.59,West,272,10.0,15.0,83,0.00,,,0.02,204,HR-IXP-WINDi_r2_v1.2,2013-04-19 15:05:00,
2013-04-19 10:11:00,37.3,32.6,29.59,WSW,245,9.0,15.0,83,0.00,,,0.02,141,HR-IXP-WINDi_r2_v1.2,2013-04-19 15:11:00,
2013-04-19 10:16:00,37.5,32.8,29.59,SW,225,7.0,13.0,83,0.00,,,0.02,264,HR-IXP-WINDi_r2_v1.2,2013-04-19 15:16:00,
2013-04-19 10:21:00,37.9,33.2,29.59,South,176,12.0,14.0,83,0.00,,,0.02,223,HR-IXP-WINDi_r2_v1.2,2013-04-19 15:21:00,
2013-04-19 10:26:00,38.0,32.7,29.59,SSW,207,9.0,17.0,81,0.00,,,0.02,132,HR-IXP-WINDi_r2_v1.2,2013-04-19 15:26:00,
2013-04-19 10:31:00,37.9,32.3,29.59,WSW,250,14.0,18.0,80,0.00,,,0.02,120,HR-IXP-WINDi_r2_v1.2,2013-04-19 15:31:00,
2013-04-19 10:36:00,37.8,32.2,29.59,South,189,7.0,18.0,80,0.00,,,0.02,104,HR-IXP-WINDi_r2_v1.2,2013-04-19 15:36:00,
2013-04-19 10:42:00,37.7,32.4,29.59,WSW,239,10.0,14.0,81,0.00,,,0.02,104,HR-IXP-WINDi_r2_v1.2,2013-04-19 15:42:00,
2013-04-19 10:47:00,37.7,32.7,29.59,WSW,246,6.0,14.0,82,0.00,,,0.02,102,HR-IXP-WINDi_r2_v1.2,2013-04-19 15:47:00,
2013-04-19 10:52:00,37.6,32.6,29.60,West,274,4.0,15.0,82,0.00,,,0.02,91,HR-IXP-WINDi_r2_v1.2,2013-04-19 15:52:00,
2013-04-19 10:57:00,37.5,32.5,29.60,WSW,241,4.0,17.0,82,0.00,,,0.02,58,HR-IXP-WINDi_r2_v1.2,2013-04-19 15:57:00,
2013-04-19 11:02:00,37.3,32.0,29.60,WSW,252,5.0,20.0,81,0.00,,,0.02,65,HR-IXP-WINDi_r2_v1.2,2013-04-19 16:02:00,
2013-04-19 11:07:00,37.1,32.1,29.60,WSW,244,8.0,20.0,82,0.00,,,0.02,151,HR-IXP-WINDi_r2_v1.2,2013-04-19 16:07:00,
2013-04-19 11:12:00,37.4,31.8,29.60,SW,223,12.0,21.0,80,0.00,,,0.02,413,HR-IXP-WINDi_r2_v1.2,2013-04-19 16:12:00,
2013-04-19 11:18:00,38.1,32.1,29.60,West,265,12.0,21.0,79,0.00,,,0.03,251,HR-IXP-WINDi_r2_v1.2,2013-04-19 16:18:00,
2013-04-19 11:23:00,38.4,31.8,29.60,WSW,247,11.0,17.0,77,0.00,,,0.03,100,HR-IXP-WINDi_r2_v1.2,2013-04-19 16:23:00,
2013-04-19 11:28:00,38.3,32.0,29.60,SW,233,8.0,16.0,78,0.00,,,0.03,77,HR-IXP-WINDi_r2_v1.2,2013-04-19 16:28:00,
2013-04-19 11:33:00,38.0,31.7,29.60,WSW,255,7.0,18.0,78,0.00,,,0.03,91,HR-IXP-WINDi_r2_v1.2,2013-04-19 16:33:00,
2013-04-19 11:38:00,37.9,31.6,29.60,SW,223,10.0,18.0,78,0.00,,,0.03,102,HR-IXP-WINDi_r2_v1.2,2013-04-19 16:38:00,
2013-04-19 11:44:00,37.9,31.3,29.60,WSW,237,10.0,22.0,77,0.00,,,0.03,102,HR-IXP-WINDi_r2_v1.2,2013-04-19 16:44:00,
2013-04-19 11:49:00,38.0,31.1,29.60,SW,224,3.0,22.0,76,0.00,,,0.03,176,HR-IXP-WINDi_r2_v1.2,2013-04-19 16:49:00,
2013-04-19 11:54:00,38.1,30.9,29.60,SW,215,6.0,15.0,75,0.00,,,0.03,156,HR-IXP-WINDi_r2_v1.2,2013-04-19 16:54:00,
2013-04-19 11:59:00,38.3,31.4,29.60,SW,230,9.0,20.0,76,0.00,,,0.03,229,HR-IXP-WINDi_r2_v1.2,2013-04-19 16:59:00,
2013-04-19 12:04:00,38.4,31.5,29.60,SW,216,15.0,20.0,76,0.00,,,0.03,111,HR-IXP-WINDi_r2_v1.2,2013-04-19 17:04:00,
2013-04-19 12:10:00,38.3,31.4,29.60,South,188,7.0,18.0,76,0.00,,,0.03,95,HR-IXP-WINDi_r2_v1.2,2013-04-19 17:10:00,
2013-04-19 12:15:00,38.1,31.2,29.61,West,275,17.0,20.0,76,0.00,,,0.03,120,HR-IXP-WINDi_r2_v1.2,2013-04-19 17:15:00,
2013-04-19 12:20:00,38.1,31.2,29.61,SSW,204,10.0,20.0,76,0.00,,,0.03,171,HR-IXP-WINDi_r2_v1.2,2013-04-19 17:20:00,
2013-04-19 12:25:00,38.3,31.4,29.61,SSW,211,8.0,18.0,76,0.00,,,0.03,123,HR-IXP-WINDi_r2_v1.2,2013-04-19 17:25:00,
2013-04-19 12:30:00,38.3,31.0,29.61,West,274,7.0,18.0,75,0.00,,,0.03,83,HR-IXP-WINDi_r2_v1.2,2013-04-19 17:30:00,
2013-04-19 12:35:00,38.2,30.9,29.61,West,259,9.0,20.0,75,0.00,,,0.03,88,HR-IXP-WINDi_r2_v1.2,2013-04-19 17:35:00,
2013-04-19 12:41:00,38.1,30.9,29.61,WSW,237,7.0,20.0,75,0.00,,,0.03,98,HR-IXP-WINDi_r2_v1.2,2013-04-19 17:41:00,
2013-04-19 12:46:00,38.2,30.9,29.62,WSW,250,17.0,23.0,75,0.00,,,0.03,118,HR-IXP-WINDi_r2_v1.2,2013-04-19 17:46:00,
2013-04-19 12:51:00,38.2,30.9,29.62,WNW,292,4.0,23.0,75,0.00,,,0.03,72,HR-IXP-WINDi_r2_v1.2,2013-04-19 17:51:00,
2013-04-19 12:56:00,38.2,31.6,29.63,SW,228,8.0,21.0,77,0.00,,,0.03,206,HR-IXP-WINDi_r2_v1.2,2013-04-19 17:56:00,
2013-04-19 13:02:00,38.5,31.2,29.63,SW,230,8.0,17.0,75,0.00,,,0.03,264,HR-IXP-WINDi_r2_v1.2,2013-04-19 18:02:00,
2013-04-19 13:07:00,38.8,30.9,29.63,West,263,6.0,17.0,73,0.00,,,0.03,132,HR-IXP-WINDi_r2_v1.2,2013-04-19 18:07:00,
2013-04-19 13:12:00,38.7,30.1,29.63,SW,220,8.0,19.0,71,0.00,,,0.03,121,HR-IXP-WINDi_r2_v1.2,2013-04-19 18:12:00,
2013-04-19 13:17:00,38.8,30.9,29.63,WSW,257,7.0,19.0,73,0.00,,,0.03,100,HR-IXP-WINDi_r2_v1.2,2013-04-19 18:17:00,
2013-04-19 13:22:00,38.6,31.3,29.64,SW,215,12.0,19.0,75,0.00,,,0.03,93,HR-IXP-WINDi_r2_v1.2,2013-04-19 18:22:00,
2013-04-19 13:28:00,38.4,31.1,29.64,SW,227,5.0,21.0,75,0.00,,,0.03,81,HR-IXP-WINDi_r2_v1.2,2013-04-19 18:28:00,
2013-04-19 13:33:00,38.3,31.0,29.65,WSW,238,7.0,21.0,75,0.00,,,0.03,98,HR-IXP-WINDi_r2_v1.2,2013-04-19 18:33:00,
2013-04-19 13:38:00,38.2,30.9,29.65,WSW,244,16.0,22.0,75,0.00,,,0.03,121,HR-IXP-WINDi_r2_v1.2,2013-04-19 18:38:00,
2013-04-19 13:43:00,38.2,30.9,29.65,West,278,10.0,22.0,75,0.00,,,0.03,91,HR-IXP-WINDi_r2_v1.2,2013-04-19 18:43:00,
2013-04-19 13:48:00,38.2,30.9,29.66,West,260,10.0,21.0,75,0.00,,,0.03,62,HR-IXP-WINDi_r2_v1.2,2013-04-19 18:48:00,
2013-04-19 13:53:00,38.2,31.3,29.66,West,261,12.0,17.0,76,0.00,,,0.03,77,HR-IXP-WINDi_r2_v1.2,2013-04-19 18:53:00,
2013-04-19 13:59:00,38.2,30.9,29.66,SW,227,8.0,17.0,75,0.00,,,0.03,84,HR-IXP-WINDi_r2_v1.2,2013-04-19 18:59:00,
2013-04-19 14:04:00,38.0,30.4,29.67,SW,229,9.0,24.0,74,0.00,,,0.03,134,HR-IXP-WINDi_r2_v1.2,2013-04-19 19:04:00,
2013-04-19 14:09:00,38.0,30.4,29.67,WSW,248,11.0,25.0,74,0.00,,,0.03,102,HR-IXP-WINDi_r2_v1.2,2013-04-19 19:09:00,
2013-04-19 14:14:00,38.0,30.8,29.67,WSW,246,12.0,25.0,75,0.00,,,0.03,104,HR-IXP-WINDi_r2_v1.2,2013-04-19 19:14:00,
2013-04-19 14:19:00,37.9,31.0,29.67,SW,221,10.0,27.0,76,0.00,,,0.03,123,HR-IXP-WINDi_r2_v1.2,2013-04-19 19:19:00,
2013-04-19 14:25:00,37.9,31.0,29.67,WSW,239,7.0,27.0,76,0.00,,,0.03,62,HR-IXP-WINDi_r2_v1.2,2013-04-19 19:25:00,
2013-04-19 14:30:00,37.7,31.4,29.68,WSW,242,5.0,20.0,78,0.00,,,0.03,76,HR-IXP-WINDi_r2_v1.2,2013-04-19 19:30:00,
2013-04-19 14:35:00,37.5,31.9,29.68,WSW,237,7.0,18.0,80,0.00,,,0.03,190,HR-IXP-WINDi_r2_v1.2,2013-04-19 19:35:00,
2013-04-19 14:40:00,37.5,31.9,29.68,SSW,195,6.0,18.0,80,0.00,,,0.03,174,HR-IXP-WINDi_r2_v1.2,2013-04-19 19:40:00,
2013-04-19 14:45:00,37.6,31.3,29.68,West,261,10.0,17.0,78,0.00,,,0.03,111,HR-IXP-WINDi_r2_v1.2,2013-04-19 19:45:00,
2013-04-19 14:52:00,37.5,31.2,29.68,SSW,211,9.0,19.0,78,0.00,,,0.03,97,HR-IXP-WINDi_r2_v1.2,2013-04-19 19:52:00,
2013-04-19 14:57:00,37.6,30.7,29.68,WSW,257,8.0,19.0,76,0.00,,,0.03,216,HR-IXP-WINDi_r2_v1.2,2013-04-19 19:57:00,
2013-04-19 15:02:00,38.0,31.1,29.68,SW,236,12.0,19.0,76,0.00,,,0.03,250,HR-IXP-WINDi_r2_v1.2,2013-04-19 20:02:00,
2013-04-19 15:08:00,38.3,31.4,29.68,SW,231,6.0,19.0,76,0.00,,,0.03,65,HR-IXP-WINDi_r2_v1.2,2013-04-19 20:08:00,
2013-04-19 15:13:00,38.2,30.9,29.68,SW,223,14.0,20.0,75,0.00,,,0.03,83,HR-IXP-WINDi_r2_v1.2,2013-04-19 20:13:00,
2013-04-19 15:18:00,38.1,30.9,29.69,SW,215,12.0,23.0,75,0.00,,,0.03,107,HR-IXP-WINDi_r2_v1.2,2013-04-19 20:18:00,
2013-04-19 15:23:00,38.1,30.9,29.69,West,263,7.0,23.0,75,0.00,,,0.03,132,HR-IXP-WINDi_r2_v1.2,2013-04-19 20:23:00,
2013-04-19 15:28:00,38.1,30.5,29.69,West,269,10.0,20.0,74,0.00,,,0.03,76,HR-IXP-WINDi_r2_v1.2,2013-04-19 20:28:00,
2013-04-19 15:34:00,38.0,30.8,29.69,SW,234,13.0,20.0,75,0.00,,,0.03,42,HR-IXP-WINDi_r2_v1.2,2013-04-19 20:34:00,
2013-04-19 15:39:00,37.8,31.2,29.69,SW,232,5.0,20.0,77,0.00,,,0.03,51,HR-IXP-WINDi_r2_v1.2,2013-04-19 20:39:00,
2013-04-19 15:44:00,37.6,31.0,29.70,WSW,258,10.0,18.0,77,0.00,,,0.03,70,HR-IXP-WINDi_r2_v1.2,2013-04-19 20:44:00,
2013-04-19 15:49:00,37.5,30.9,29.70,South,175,7.0,18.0,77,0.00,,,0.03,79,HR-IXP-WINDi_r2_v1.2,2013-04-19 20:49:00,
2013-04-19 15:55:00,37.5,31.2,29.70,WSW,246,11.0,18.0,78,0.00,,,0.03,91,HR-IXP-WINDi_r2_v1.2,2013-04-19 20:55:00,
2013-04-19 16:00:00,37.7,31.1,29.70,SW,233,13.0,18.0,77,0.00,,,0.03,121,HR-IXP-WINDi_r2_v1.2,2013-04-19 21:00:00,
2013-04-19 16:05:00,37.6,30.7,29.70,WSW,254,5.0,19.0,76,0.00,,,0.03,51,HR-IXP-WINDi_r2_v1.2,2013-04-19 21:05:00,
2013-04-19 16:10:00,37.5,30.6,29.71,WSW,238,8.0,19.0,76,0.00,,,0.03,44,HR-IXP-WINDi_r2_v1.2,2013-04-19 21:10:00,
2013-04-19 16:15:00,37.4,30.8,29.71,WSW,244,8.0,17.0,77,0.00,,,0.03,69,HR-IXP-WINDi_r2_v1.2,2013-04-19 21:15:00,
2013-04-19 16:21:00,37.4,31.1,29.71,SW,219,5.0,17.0,78,0.00,,,0.03,116,HR-IXP-WINDi_r2_v1.2,2013-04-19 21:21:00,
2013-04-19 16:26:00,37.5,30.9,29.71,West,259,10.0,18.0,77,0.00,,,0.03,74,HR-IXP-WINDi_r2_v1.2,2013-04-19 21:26:00,
2013-04-19 16:31:00,37.5,30.6,29.71,West,259,8.0,20.0,76,0.00,,,0.03,39,HR-IXP-WINDi_r2_v1.2,2013-04-19 21:31:00,
2013-04-19 16:37:00,37.5,30.6,29.72,WSW,237,5.0,20.0,76,0.00,,,0.03,33,HR-IXP-WINDi_r2_v1.2,2013-04-19 21:37:00,
2013-04-19 16:42:00,37.4,31.1,29.72,WSW,257,10.0,18.0,78,0.00,,,0.03,26,HR-IXP-WINDi_r2_v1.2,2013-04-19 21:42:00,
2013-04-19 16:47:00,37.3,31.4,29.72,West,260,10.0,15.0,79,0.00,,,0.03,37,HR-IXP-WINDi_r2_v1.2,2013-04-19 21:47:00,
2013-04-19 16:52:00,37.2,31.3,29.73,West,277,7.0,15.0,79,0.00,,,0.03,32,HR-IXP-WINDi_r2_v1.2,2013-04-19 21:52:00,
2013-04-19 16:57:00,37.1,31.2,29.73,SW,235,12.0,17.0,79,0.00,,,0.03,74,HR-IXP-WINDi_r2_v1.2,2013-04-19 21:57:00,
2013-04-19 17:02:00,37.1,31.2,29.74,West,276,9.0,21.0,79,0.00,,,0.03,72,HR-IXP-WINDi_r2_v1.2,2013-04-19 22:02:00,
2013-04-19 17:07:00,37.2,31.3,29.74,WSW,254,13.0,21.0,79,0.00,,,0.03,54,HR-IXP-WINDi_r2_v1.2,2013-04-19 22:07:00,
2013-04-19 17:12:00,37.2,31.3,29.74,WSW,243,5.0,15.0,79,0.00,,,0.03,58,HR-IXP-WINDi_r2_v1.2,2013-04-19 22:12:00,
2013-04-19 17:18:00,37.3,31.0,29.74,West,259,6.0,17.0,78,0.00,,,0.03,53,HR-IXP-WINDi_r2_v1.2,2013-04-19 22:18:00,
2013-04-19 17:23:00,37.4,30.8,29.74,West,274,11.0,18.0,77,0.00,,,0.03,62,HR-IXP-WINDi_r2_v1.2,2013-04-19 22:23:00,
2013-04-19 17:28:00,37.5,31.2,29.74,WSW,249,8.0,18.0,78,0.00,,,0.03,54,HR-IXP-WINDi_r2_v1.2,2013-04-19 22:28:00,
2013-04-19 17:33:00,37.5,30.6,29.75,SW,216,9.0,17.0,76,0.00,,,0.03,42,HR-IXP-WINDi_r2_v1.2,2013-04-19 22:33:00,
2013-04-19 17:38:00,37.5,30.6,29.75,WSW,257,11.0,17.0,76,0.00,,,0.03,42,HR-IXP-WINDi_r2_v1.2,2013-04-19 22:38:00,
2013-04-19 17:43:00,37.5,30.9,29.75,WSW,254,9.0,16.0,77,0.00,,,0.03,37,HR-IXP-WINDi_r2_v1.2,2013-04-19 22:43:00,
2013-04-19 17:48:00,37.5,30.6,29.76,SW,234,9.0,16.0,76,0.00,,,0.03,39,HR-IXP-WINDi_r2_v1.2,2013-04-19 22:48:00,
2013-04-19 17:54:00,37.6,30.7,29.76,West,273,4.0,16.0,76,0.00,,,0.03,42,HR-IXP-WINDi_r2_v1.2,2013-04-19 22:54:00,
2013-04-19 17:59:00,37.6,31.0,29.76,SW,224,1.0,14.0,77,0.00,,,0.03,37,HR-IXP-WINDi_r2_v1.2,2013-04-19 22:59:00,
2013-04-19 18:04:00,37.6,30.7,29.76,SW,234,5.0,15.0,76,0.00,,,0.03,33,HR-IXP-WINDi_r2_v1.2,2013-04-19 23:04:00,
2013-04-19 18:09:00,37.7,30.1,29.76,SW,220,4.0,17.0,74,0.00,,,0.03,23,HR-IXP-WINDi_r2_v1.2,2013-04-19 23:09:00,
2013-04-19 18:14:00,37.7,31.1,29.76,SW,217,5.0,17.0,77,0.00,,,0.03,19,HR-IXP-WINDi_r2_v1.2,2013-04-19 23:14:00,
2013-04-19 18:19:00,37.6,31.3,29.76,SW,216,4.0,11.0,78,0.00,,,0.03,12,HR-IXP-WINDi_r2_v1.2,2013-04-19 23:19:00,
2013-04-19 18:24:00,37.4,31.1,29.77,SW,236,6.0,15.0,78,0.00,,,0.03,21,HR-IXP-WINDi_r2_v1.2,2013-04-19 23:24:00,
2013-04-19 18:29:00,37.3,31.0,29.77,SW,227,3.0,15.0,78,0.00,,,0.03,21,HR-IXP-WINDi_r2_v1.2,2013-04-19 23:29:00,
2013-04-19 18:34:00,37.3,31.0,29.77,WSW,256,10.0,14.0,78,0.00,,,0.03,16,HR-IXP-WINDi_r2_v1.2,2013-04-19 23:34:00,
2013-04-19 18:39:00,37.2,31.3,29.78,WSW,246,3.0,13.0,79,0.00,,,0.03,12,HR-IXP-WINDi_r2_v1.2,2013-04-19 23:39:00,
2013-04-19 18:45:00,37.2,30.9,29.78,WNW,294,10.0,13.0,78,0.00,,,0.03,14,HR-IXP-WINDi_r2_v1.2,2013-04-19 23:45:00,
2013-04-19 18:50:00,37.3,30.4,29.78,WSW,257,9.0,15.0,76,0.00,,,0.03,14,HR-IXP-WINDi_r2_v1.2,2013-04-19 23:50:00,
2013-04-19 18:55:00,37.3,30.4,29.78,West,277,3.0,15.0,76,0.00,,,0.03,9,HR-IXP-WINDi_r2_v1.2,2013-04-19 23:55:00,
2013-04-19 19:00:00,37.3,30.7,29.79,South,191,3.0,14.0,77,0.00,,,0.03,7,HR-IXP-WINDi_r2_v1.2,2013-04-20 00:00:00,
2013-04-19 19:06:00,37.3,31.4,29.79,WNW,292,10.0,14.0,79,0.00,,,0.03,5,HR-IXP-WINDi_r2_v1.2,2013-04-20 00:06:00,
2013-04-19 19:11:00,37.1,31.2,29.79,SW,234,2.0,17.0,79,0.00,,,0.03,0,HR-IXP-WINDi_r2_v1.2,2013-04-20 00:11:00,
2013-04-19 19:16:00,36.9,31.0,29.80,West,261,9.0,17.0,79,0.00,,,0.03,0,HR-IXP-WINDi_r2_v1.2,2013-04-20 00:16:00,
2013-04-19 19:21:00,36.7,31.4,29.80,West,260,7.0,15.0,81,0.00,,,0.03,0,HR-IXP-WINDi_r2_v1.2,2013-04-20 00:21:00,
2013-04-19 19:26:00,36.5,31.5,29.80,West,274,12.0,15.0,82,0.00,,,0.03,0,HR-IXP-WINDi_r2_v1.2,2013-04-20 00:26:00,
2013-04-19 19:31:00,36.2,31.5,29.81,SW,236,6.0,13.0,83,0.00,,,0.03,0,HR-IXP-WINDi_r2_v1.2,2013-04-20 00:31:00,
2013-04-19 19:36:00,35.9,31.5,29.81,WSW,258,3.0,12.0,84,0.00,,,0.03,0,HR-IXP-WINDi_r2_v1.2,2013-04-20 00:36:00,
2013-04-19 19:41:00,35.8,31.7,29.81,WSW,251,4.0,10.0,85,0.00,,,0.03,0,HR-IXP-WINDi_r2_v1.2,2013-04-20 00:41:00,
2013-04-19 19:46:00,35.7,31.6,29.81,WSW,248,3.0,14.0,85,0.00,,,0.03,0,HR-IXP-WINDi_r2_v1.2,2013-04-20 00:46:00,
2013-04-19 19:52:00,35.8,31.7,29.81,SSW,194,1.0,14.0,85,0.00,,,0.03,0,HR-IXP-WINDi_r2_v1.2,2013-04-20 00:52:00,
2013-04-19 19:57:00,35.9,31.5,29.82,WSW,243,2.0,13.0,84,0.00,,,0.03,0,HR-IXP-WINDi_r2_v1.2,2013-04-20 00:57:00,
2013-04-19 20:02:00,36.1,31.7,29.82,SW,225,5.0,13.0,84,0.00,,,0.03,0,HR-IXP-WINDi_r2_v1.2,2013-04-20 01:02:00,
2013-04-19 20:07:00,36.1,32.0,29.82,WSW,250,4.0,13.0,85,0.00,,,0.03,0,HR-IXP-WINDi_r2_v1.2,2013-04-20 01:07:00,
2013-04-19 20:12:00,36.1,31.7,29.82,SW,234,3.0,13.0,84,0.00,,,0.03,0,HR-IXP-WINDi_r2_v1.2,2013-04-20 01:12:00,
2013-04-19 20:17:00,36.1,31.7,29.83,WSW,239,7.0,13.0,84,0.00,,,0.03,0,HR-IXP-WINDi_r2_v1.2,2013-04-20 01:17:00,
2013-04-19 20:23:00,36.1,31.7,29.83,SW,225,3.0,14.0,84,0.00,,,0.03,0,HR-IXP-WINDi_r2_v1.2,2013-04-20 01:23:00,
2013-04-19 20:28:00,36.1,32.0,29.83,WSW,250,4.0,14.0,85,0.00,,,0.03,0,HR-IXP-WINDi_r2_v1.2,2013-04-20 01:28:00,
2013-04-19 20:33:00,36.1,32.0,29.83,WSW,238,2.0,9.0,85,0.00,,,0.03,0,HR-IXP-WINDi_r2_v1.2,2013-04-20 01:33:00,
2013-04-19 20:38:00,36.1,32.0,29.84,WSW,245,7.0,11.0,85,0.00,,,0.03,0,HR-IXP-WINDi_r2_v1.2,2013-04-20 01:38:00,
2013-04-19 20:43:00,36.1,31.7,29.84,SW,225,13.0,19.0,84,0.00,,,0.03,0,HR-IXP-WINDi_r2_v1.2,2013-04-20 01:43:00,
2013-04-19 20:48:00,36.2,31.5,29.84,WSW,255,17.0,19.0,83,0.00,,,0.03,0,HR-IXP-WINDi_r2_v1.2,2013-04-20 01:48:00,
2013-04-19 20:53:00,36.3,31.6,29.84,WSW,239,3.0,20.0,83,0.00,,,0.03,0,HR-IXP-WINDi_r2_v1.2,2013-04-20 01:53:00,
2013-04-19 20:58:00,36.3,31.9,29.85,West,261,6.0,20.0,84,0.00,,,0.03,0,HR-IXP-WINDi_r2_v1.2,2013-04-20 01:58:00,
2013-04-19 21:04:00,36.2,31.8,29.85,WSW,257,7.0,13.0,84,0.00,,,0.03,0,HR-IXP-WINDi_r2_v1.2,2013-04-20 02:04:00,
2013-04-19 21:09:00,36.2,31.8,29.85,SW,232,5.0,12.0,84,0.00,,,0.03,0,HR-IXP-WINDi_r2_v1.2,2013-04-20 02:09:00,
2013-04-19 21:15:00,36.1,31.7,29.85,WSW,249,6.0,13.0,84,0.00,,,0.03,0,HR-IXP-WINDi_r2_v1.2,2013-04-20 02:15:00,
2013-04-19 21:20:00,36.1,31.7,29.85,WSW,251,1.0,13.0,84,0.00,,,0.03,0,HR-IXP-WINDi_r2_v1.2,2013-04-20 02:20:00,
2013-04-19 21:26:00,36.1,31.7,29.85,West,265,6.0,12.0,84,0.00,,,0.03,0,HR-IXP-WINDi_r2_v1.2,2013-04-20 02:26:00,
2013-04-19 21:31:00,36.1,31.7,29.86,West,281,12.0,12.0,84,0.00,,,0.03,0,HR-IXP-WINDi_r2_v1.2,2013-04-20 02:31:00,
2013-04-19 21:36:00,35.3,31.5,29.87,West,269,13.0,20.0,86,0.00,,,0.03,0,HR-IXP-WINDi_r2_v1.2,2013-04-20 02:36:00,
2013-04-19 21:42:00,33.9,30.4,29.87,WSW,255,6.0,20.0,87,0.00,,,0.03,0,HR-IXP-WINDi_r2_v1.2,2013-04-20 02:42:00,
2013-04-19 21:47:00,33.6,30.1,29.87,WSW,258,6.0,19.0,87,0.00,,,0.03,0,HR-IXP-WINDi_r2_v1.2,2013-04-20 02:47:00,
2013-04-19 21:52:00,33.8,30.6,29.87,West,267,5.0,16.0,88,0.00,,,0.03,0,HR-IXP-WINDi_r2_v1.2,2013-04-20 02:52:00,
2013-04-19 21:57:00,34.0,30.8,29.87,West,267,5.0,12.0,88,0.00,,,0.03,0,HR-IXP-WINDi_r2_v1.2,2013-04-20 02:57:00,
2013-04-19 22:02:00,34.3,30.8,29.87,West,265,7.0,12.0,87,0.00,,,0.03,0,HR-IXP-WINDi_r2_v1.2,2013-04-20 03:02:00,
2013-04-19 22:08:00,34.5,31.0,29.87,WNW,285,5.0,11.0,87,0.00,,,0.03,0,HR-IXP-WINDi_r2_v1.2,2013-04-20 03:08:00,
2013-04-19 22:13:00,34.7,30.9,29.87,West,261,2.0,11.0,86,0.00,,,0.03,0,HR-IXP-WINDi_r2_v1.2,2013-04-20 03:13:00,
2013-04-19 22:18:00,34.8,31.0,29.88,West,270,3.0,11.0,86,0.00,,,0.03,0,HR-IXP-WINDi_r2_v1.2,2013-04-20 03:18:00,
2013-04-19 22:23:00,35.0,31.2,29.88,WSW,245,9.0,10.0,86,0.00,,,0.03,0,HR-IXP-WINDi_r2_v1.2,2013-04-20 03:23:00,
2013-04-19 22:28:00,35.1,31.0,29.88,West,267,4.0,15.0,85,0.00,,,0.03,0,HR-IXP-WINDi_r2_v1.2,2013-04-20 03:28:00,
2013-04-19 22:33:00,35.2,31.1,29.88,West,269,8.0,15.0,85,0.00,,,0.03,0,HR-IXP-WINDi_r2_v1.2,2013-04-20 03:33:00,
2013-04-19 22:39:00,35.2,30.8,29.88,WSW,257,7.0,13.0,84,0.00,,,0.03,0,HR-IXP-WINDi_r2_v1.2,2013-04-20 03:39:00,
2013-04-19 22:44:00,35.1,30.1,29.88,WSW,243,8.0,13.0,82,0.00,,,0.03,0,HR-IXP-WINDi_r2_v1.2,2013-04-20 03:44:00,
2013-04-19 22:49:00,35.0,29.7,29.89,WSW,250,8.0,15.0,81,0.00,,,0.03,0,HR-IXP-WINDi_r2_v1.2,2013-04-20 03:49:00,
2013-04-19 22:54:00,34.9,29.6,29.89,WNW,288,7.0,15.0,81,0.00,,,0.03,0,HR-IXP-WINDi_r2_v1.2,2013-04-20 03:54:00,
2013-04-19 22:59:00,34.8,29.5,29.89,West,268,7.0,12.0,81,0.00,,,0.03,0,HR-IXP-WINDi_r2_v1.2,2013-04-20 03:59:00,
2013-04-19 23:01:00,34.7,29.4,29.89,WSW,257,7.0,13.0,81,0.00,,,0.03,0,HR-IXP-WINDi_r2_v1.2,2013-04-20 04:01:00,
2013-04-19 23:06:00,34.7,29.4,29.89,WNW,294,6.0,14.0,81,0.00,,,0.03,0,HR-IXP-WINDi_r2_v1.2,2013-04-20 04:06:00,
2013-04-19 23:11:00,34.7,29.4,29.89,West,269,6.0,14.0,81,0.00,,,0.03,0,HR-IXP-WINDi_r2_v1.2,2013-04-20 04:11:00,
2013-04-19 23:16:00,34.6,29.3,29.89,WSW,253,5.0,13.0,81,0.00,,,0.03,0,HR-IXP-WINDi_r2_v1.2,2013-04-20 04:16:00,
2013-04-19 23:21:00,34.6,29.6,29.90,WSW,246,5.0,13.0,82,0.00,,,0.03,0,HR-IXP-WINDi_r2_v1.2,2013-04-20 04:21:00,
2013-04-19 23:26:00,34.4,29.5,29.90,WSW,247,6.0,13.0,82,0.00,,,0.03,0,HR-IXP-WINDi_r2_v1.2,2013-04-20 04:26:00,
2013-04-19 23:31:00,34.4,29.7,29.90,West,279,10.0,14.0,83,0.00,,,0.03,0,HR-IXP-WINDi_r2_v1.2,2013-04-20 04:31:00,
2013-04-19 23:37:00,34.5,30.1,29.90,WSW,248,9.0,14.0,84,0.00,,,0.03,0,HR-IXP-WINDi_r2_v1.2,2013-04-20 04:37:00,
2013-04-19 23:42:00,34.5,30.1,29.90,West,264,8.0,14.0,84,0.00,,,0.03,0,HR-IXP-WINDi_r2_v1.2,2013-04-20 04:42:00,
2013-04-19 23:47:00,34.6,30.2,29.90,West,271,7.0,14.0,84,0.00,,,0.03,0,HR-IXP-WINDi_r2_v1.2,2013-04-20 04:47:00,
2013-04-19 23:52:00,34.6,30.2,29.91,West,259,6.0,13.0,84,0.00,,,0.03,0,HR-IXP-WINDi_r2_v1.2,2013-04-20 04:52:00,
2013-04-19 23:57:00,34.6,30.2,29.91,West,277,9.0,12.0,84,0.00,,,0.03,0,HR-IXP-WINDi_r2_v1.2,2013-04-20 04:57:00,